ホーガン彗星

C/2023 X4 ( Hogan )

English version
Home page
Updated on May 15, 2024

---------------------------------------------------------------------

・ プロフィール

発見日 2023年12月13日
発見光度 19.8等
発見者 Joshua K. Hogan (Mt. Lemmon Survey)

・ 写真集

・ 軌道要素

Epoch 2024 Mar. 31.0 TT = JDT 2460400.5
T 2024 May 24.73013 TT                                  Rudenko
q   3.6580260            (2000.0)            P               Q
n   0.03159287     Peri.  100.53610     -0.62374909     -0.77561722
a   9.9100686      Node    28.76558     +0.61523115     -0.56351643
e   0.6308778      Incl.   11.59479     +0.48210757     -0.28437154
P  31.2
>From 64 observations 2023 Sept. 20-2024 Mar. 12, mean residual 0".4.

・ 光度変化

        m1 = 3.0 + 5 logΔ + 25.0 log r

---------------------------------------------------------------------

軌道要素はM.P.E.C. 2024-J304に掲載されたものです。
光度グラフはComet for Windowsで作成したものです。

---------------------------------------------------------------------

Copyright(C) Seiichi Yoshida (comet@aerith.net). All rights reserved.